Regional Weather Roundup
Issued by NWS

Home | Current Version | Previous Version | Text Only | Print | Product List | Glossary Off
Versions: 1 2 3 4 5 6 7 8 9 10 11 12 13 14 15 16 17 18 19 20 21 22 23 24 25 26 27 28 29 30 31 32 33 34 35 36 37 38 39 40 41 42 43 44 45 46 47 48 49 50

000
ASUS43 KMKX 281200
RWRWI

WISCONSIN REGIONAL WEATHER ROUNDUP
NATIONAL WEATHER SERVICE MILWAUKEE/SULLIVAN WI
700 AM CDT THU JUL 28 2016

NOTE: "FAIR" INDICATES FEW OR NO CLOUDS BELOW 12,000 FEET WITH NO
SIGNIFICANT WEATHER AND/OR OBSTRUCTIONS TO VISIBILITY.

WIZ001-002-006>008-014>016-023>028-281300-
NORTHWEST WISCONSIN

CITY           SKY/WX    TMP DP  RH WIND       PRES   REMARKS
SUPERIOR ARPT  SUNNY     61  57  87 NE6       30.06R
ASHLAND        SUNNY     63  58  83 NE8       30.06R
6HR MIN TEMP:  60; 6HR MAX TEMP:  63;

HAYWARD        CLOUDY    62  59  90 NE7       30.04R
6HR MIN TEMP:  60; 6HR MAX TEMP:  63;

SIREN          MOSUNNY   61  57  88 NE6       30.03S
CUMBERLAND     CLOUDY    63  61  94 N7        30.01S
RICE LAKE      CLOUDY    65  62  91 N9        30.02R
CHETEK         CLOUDY    65  63  92 NE6       30.00R
LADYSMITH      CLOUDY    65  63  94 NE8       30.03R
EAU CLAIRE     NOT AVBL
MENOMONIE      CLOUDY    65  65  99 CALM      29.98S
NEW RICHMOND   CLOUDY    64  63  97 N7        30.01R
OSCEOLA        CLOUDY    64  64 100 N7        30.04R
$$

WIZ003>005-009-010-017-018-281300-
NORTH CENTRAL WISCONSIN

CITY           SKY/WX    TMP DP  RH WIND       PRES   REMARKS
MANITOWISH WTR CLOUDY    60  60 100 NE7       30.05S
ARBOR VITAE    CLOUDY    59  57  92 NE5       30.05R
WOODRUFF       CLOUDY    59  57  92 NE5       30.05R
RHINELANDER    CLOUDY    60  57  89 NE6       30.05R
6HR MIN TEMP:  59; 6HR MAX TEMP:  65; 6HR PCP:  0.02;

EAGLE RIVER    CLOUDY    58  58  99 NE3       30.05R
LAND O LAKES   CLOUDY    60  57  92 NE5       30.06S
PHILLIPS       CLOUDY    61  61  99 NE6       30.03S
6HR MIN TEMP:  61; 6HR MAX TEMP:  64; 6HR PCP:  0.02;

TOMAHAWK       CLOUDY    59  58  94 NE5       30.04R FOG
MEDFORD        DRIZZLE   62  62 100 E9        30.00S
MERRILL        LGT RAIN  59  59 100 NE6       30.03R
$$

WIZ029-030-035-036-043>047-281300-
CENTRAL WISCONSIN

CITY           SKY/WX    TMP DP  RH WIND       PRES   REMARKS
WAUSAU         LGT RAIN  60  59  96 E3        30.00R
6HR MIN TEMP:  60; 6HR MAX TEMP:  64; 6HR PCP:  0.43;

MOSINEE        HVY RAIN  59  59 100 E12       30.01R
MARSHFIELD     LGT RAIN  63  60  90 NE14G21   29.97S FOG
6HR MIN TEMP:  63; 6HR MAX TEMP:  66; 6HR PCP:  0.26;

STEVENS POINT  CLOUDY    61  60  99 E13       29.99R
WAUPACA        CLOUDY    66  66  99 NE6       29.98R
WAUTOMA        CLOUDY    67  66  97 NE7       29.97R
6HR MIN TEMP:  65; 6HR MAX TEMP:  68;

WISC RAPIDS    CLOUDY    66  63  90 E12       29.98R
6HR MIN TEMP:  65; 6HR MAX TEMP:  67; 6HR PCP:  0.18;

CAMP DOUGLAS   LGT RAIN  66  66 100 SE8       29.93S
$$

WIZ011>013-019>022-031-037>040-048>050-281300-
NORTHEAST WISCONSIN

CITY           SKY/WX    TMP DP  RH WIND       PRES   REMARKS
ANTIGO         LGT RAIN  58  58 100 NE6       30.04R
SHAWANO        CLOUDY    63  60  91 NE10G16   30.01R
OCONTO         CLOUDY   N/A N/A N/A NE7       30.00R
STURGEON BAY   CLOUDY    62  60  93 NE7       30.01S
6HR MIN TEMP:  61; 6HR MAX TEMP:  67; 6HR PCP:  0.27;

GREEN BAY      LGT RAIN  64  64 100 NE10      29.99R
6HR MIN TEMP:  63; 6HR MAX TEMP:  67; 6HR PCP:  0.08;

MANITOWOC      NOT AVBL
APPLETON       NOT AVBL
CLINTONVILLE   CLOUDY    61  59  94 NE8       30.00R
OSHKOSH        CLOUDY    67  61  81 NE12      29.96R
6HR MIN TEMP:  67; 6HR MAX TEMP:  73; 6HR PCP:  0.05;

$$

WIZ032>034-041-042-053>061-281300-
SOUTHWEST WISCONSIN

CITY           SKY/WX    TMP DP  RH WIND       PRES   REMARKS
LA CROSSE      CLOUDY    69  66  90 N8        29.92R
6HR MIN TEMP:  68; 6HR MAX TEMP:  72; 6HR PCP: TRACE;

SPARTA         CLOUDY    67  67  99 NE3       29.93S
VIROQUA        CLOUDY    67  67 100 NE3       29.93S VSB 1/4
BOSCOBEL       FOG       69  68  96 CALM      29.91S VSB 1/4
6HR MIN TEMP:  67; 6HR MAX TEMP:  69;

PRAIRIE DU CHI FOG       68  66  95 CALM      29.90R VSB 1/4
PLATTEVILLE    SUNNY     68  67  95 CALM      29.91S
$$

WIZ056-057-062-063-064-067-068-281300-
SOUTH CENTRAL WISCONSIN

CITY           SKY/WX    TMP DP  RH WIND       PRES   REMARKS
REEDSBURG      CLOUDY    67  67 100 E5        29.92S
BARABOO/DELLS  MOSUNNY   66  65  94 E7        29.93S
LONE ROCK      CLOUDY    68  67  96 CALM      29.92R FOG
MINERAL POINT  MOSUNNY   68  66  94 CALM      29.92R
MADISON        PTSUNNY   69  66  90 E8        29.92S
6HR MIN TEMP:  67; 6HR MAX TEMP:  74;

MIDDLETON      CLOUDY    69  69 100 NE5       29.93S
WATERTOWN      MOSUNNY   67  67 100 E5        29.93R
MONROE         SUNNY     68  66  94 NE3       29.91R FOG
JANESVILLE     FOG       70  70 100 E8        29.91R VSB 1
$$

WIZ051-052-058>065-066-070>072-281300-
SOUTHEAST WISCONSIN

CITY           SKY/WX    TMP DP  RH WIND       PRES   REMARKS
MILWAUKEE      PTSUNNY   70  68  93 N5        29.93R
6HR MIN TEMP:  68; 6HR MAX TEMP:  70; 6HR PCP:  0.03;

WAUKESHA       NOT AVBL
MILWAUKEE/TIMM MOSUNNY   66  63  88 NE5       29.94S
RACINE         CLOUDY    69  67  93 N6        29.94S FOG
6HR MIN TEMP:  66; 6HR MAX TEMP:  72; 6HR PCP:  0.05;

BURLINGTON     SUNNY     67  65  93 CALM      29.93R
KENOSHA        SUNNY     70  67  90 N5        29.93R
6HR MIN TEMP:  67; 6HR MAX TEMP:  75;

FOND DU LAC    CLOUDY    67  62  84 NE9       29.96R
6HR MIN TEMP:  67; 6HR MAX TEMP:  72; 6HR PCP:  0.04;

SHEBOYGAN      CLOUDY    66  61  84 NE13      29.96R
6HR MIN TEMP:  65; 6HR MAX TEMP:  68;

WEST BEND      CLOUDY    64  64 100 NE5       29.95S
JUNEAU         CLOUDY    66  64  94 E8        29.95R
$$

LSZ147-162-281300-
LAKE SUPERIOR

STATION/POSITION TIME  TEMP    WIND        PRES    WAVE
                       AIR SEA DIR/SP/G            HT/PER
                 (UTC) (F)     (DEG/KT/KT) (MB)    (FT/S)
W MID LAKE BUOY  1050   62 59   30/ 10/ 12 1017.5R   0
DEVILS ISLAND    1100   62      20/  9/ 11 1018.1R
PORT WING        1040   60      CALM  /  3 1017.9R
SAXON HARBOR     1140   65      70/  8/ 10 1017.3S
$$

LMZ867-665-643>646-281300-
LAKE MICHIGAN

STATION/POSITION TIME  TEMP    WIND        PRES    WAVE
                       AIR SEA DIR/SP/G            HT/PER
                 (UTC) (F)     (DEG/KT/KT) (MB)    (FT/S)
CHAMBERS ISLAND  1100   65     360/ 14/ 18 1015.9R
N MID LAKE BUOY  1050   65 69   30/ 16/ 17 1014.8R   2/ 4
NORTHPORT PIER   1100   63      30/  9/ 12 1016.3R
SISTER BAY       1136   59     130/  4/  8   N/A
ALGOMA LAKESHORE 1113           70/ 12/ 17   N/A
KEWAUNEE LAKESHO 1100   63      30/  4/  8 1015.0R
SHEBOYGAN LAKESH 1100   62     350/ 13/ 14 1014.5R
PORT WASHINGTON  1100   66      20/  3/  4 1014.6S
ATWATER BUOY     1100   65 64  360/  8/ 10 1014.9S
MILWAUKEE LAKESH 1110   67     360/  8/ 10   N/A
S MID LAKE BUOY  1050   73 75   30/ 10/ 12 1012.0S   0
KENOSHA   LAKESH 1100   67      10/ 14/ 15 1012.9R
$$

TC  - TEMPERATURE IN CELSIUS
VSB - VISIBILITY IN STATUTE MILES
WCI - WIND CHILL INDEX
HX  - HEAT INDEX





USA.gov is the U.S. government's official web portal to all federal, state and local government web resources and services.